VA3PPY Weather Reports


time (UTC)temp
C
wind
direction
speed
KPH
gust
KPH
rain 1hr
cm
rain 24hr
cm
rain mn
cm
humidity
%
barometer
mb
20260506091515 4 292 6.4 17.7 0.00 0.03 0.00 86 1007.1
20260506090015 4 304 6.4 19.3 0.00 0.03 0.00 87 1007.1
20260506084515 5 316 4.8 14.5 0.00 0.03 0.00 88 1007.2
20260506083021 5 289 1.6 14.5 0.00 0.03 0.00 89 1007.2
20260506081517 5 240 0.0 4.8 0.00 0.03 0.00 89 1006.9
20260506073015 6 231 0.0 4.8 0.00 0.03 0.00 87 1006.8
20260506071518 6 231 0.0 6.4 0.00 0.03 0.00 86 1006.8
20260506061516 8 129 0.0 0.0 0.00 0.03 0.00 78 1006.3
20260506044517 8 128 0.0 3.2 0.00 0.03 0.00 87 1006.8
20260506043016 9 128 0.0 1.6 0.00 0.03 0.00 88 1007.0
20260506041516 9 128 0.0 4.8 0.00 0.03 0.00 88 1006.9
20260506040016 9 128 1.6 6.4 0.00 0.03 0.00 88 1007.0
20260506034516 9 128 0.0 6.4 0.00 0.03 0.03 87 1006.7
20260506033025 9 128 0.0 6.4 0.00 0.03 0.03 87 1006.9
20260506031529 9 93 0.0 3.2 0.00 0.03 0.03 87 1006.9
20260506030018 9 93 1.6 4.8 0.00 0.03 0.03 87 1007.1
20260506024525 10 93 1.6 4.8 0.00 0.03 0.03 86 1007.0
20260506023017 10 93 0.0 3.2 0.00 0.03 0.03 87 1006.5
20260506021518 10 93 0.0 1.6 0.00 0.03 0.03 86 1006.8
20260506020017 10 93 0.0 0.0 0.00 0.03 0.03 86 1006.7
20260506014516 10 93 0.0 0.0 0.00 0.03 0.03 86 1006.7
20260506013020 9 93 0.0 4.8 0.00 0.03 0.03 86 1006.7
20260506011519 10 49 0.0 0.0 0.00 0.03 0.03 86 1006.5
20260506010043 9 49 0.0 0.0 0.00 0.03 0.03 85 1006.4
20260506004517 10 49 0.0 0.0 0.00 0.03 0.03 84 1006.3
20260506003017 10 49 0.0 0.0 0.03 0.03 0.03 84 1006.2
20260506001517 10 49 0.0 0.0 0.03 0.03 0.03 83 1006.2
20260506000018 10 49 0.0 0.0 0.03 0.03 0.03 82 1005.9
20260505234517 10 49 0.0 1.6 0.00 0.00 0.00 82 1005.8
20260505233018 10 49 0.0 0.0 0.00 0.00 0.00 82 1005.9
20260505231518 10 49 0.0 1.6 0.00 0.00 0.00 81 1006.0
20260505230025 10 49 0.0 3.2 0.00 0.00 0.00 81 1005.9
20260505224517 10 49 0.0 3.2 0.00 0.00 0.00 81 1006.1
20260505223018 10 49 3.2 4.8 0.00 0.00 0.00 82 1006.0
20260505221519 9 49 1.6 4.8 0.00 0.00 0.00 81 1006.2
20260505220022 9 49 0.0 3.2 0.00 0.00 0.00 80 1006.2
20260505214518 9 49 3.2 6.4 0.00 0.00 0.00 79 1006.2
20260505213024 9 47 3.2 8.0 0.00 0.00 0.00 79 1006.3
20260505211521 9 47 1.6 6.4 0.00 0.00 0.00 78 1006.1
20260505210018 8 47 4.8 8.0 0.00 0.00 0.00 77 1006.2
20260505204520 8 347 3.2 6.4 0.00 0.00 0.00 76 1006.3
20260505203028 8 347 1.6 4.8 0.00 0.00 0.00 75 1006.5
20260505201554 8 347 0.0 4.8 0.00 0.00 0.00 73 1006.6
20260505200049 8 347 1.6 4.8 0.00 0.00 0.00 73 1006.8
20260505194549 8 347 1.6 3.2 0.00 0.00 0.00 73 1006.5
20260505193050 8 347 0.0 3.2 0.00 0.00 0.00 72 1006.6
20260505191602 8 347 1.6 4.8 0.00 0.00 0.00 73 1006.5
20260505190057 8 347 0.0 3.2 0.00 0.00 0.00 74 1006.4
20260505184549 7 347 0.0 3.2 0.00 0.00 0.00 77 1006.3
20260505183111 7 347 1.6 4.8 0.00 0.00 0.00 80 1006.1
20260505181551 7 347 0.0 3.2 0.00 0.00 0.00 81 1006.3
20260505180049 7 347 0.0 4.8 0.00 0.00 0.00 82 1006.0
20260505174550 6 347 0.0 3.2 0.00 0.00 0.00 83 1006.0
20260505173053 6 347 0.0 1.6 0.00 0.00 0.00 85 1005.9
20260505171558 6 347 0.0 6.4 0.00 0.00 0.00 83 1005.8
20260505170049 6 347 0.0 4.8 0.00 0.00 0.00 80 1005.6
20260505164551 7 347 3.2 8.0 0.00 0.00 0.00 79 1005.6
20260505163050 7 335 3.2 8.0 0.00 0.00 0.00 77 1005.8
20260505161610 6 347 1.6 8.0 0.00 0.00 0.00 76 1005.8
20260505153051 7 321 1.6 6.4 0.00 0.00 0.00 76 1005.2
20260505151550 7 303 1.6 9.7 0.00 0.00 0.00 76 1005.4
20260505124552 6 317 1.6 8.0 0.00 0.00 0.00 82 1002.7
20260505123051 6 330 4.8 9.7 0.00 0.00 0.00 82 1002.7
20260505121551 6 332 1.6 8.0 0.00 0.00 0.00 82 1002.7
20260505120108 6 335 1.6 11.3 0.00 0.00 0.00 83 1002.2
20260505114551 6 307 3.2 12.9 0.00 0.00 0.00 84 1001.7
20260505113051 6 271 3.2 12.9 0.00 0.00 0.00 85 1001.8
20260505111551 6 302 4.8 12.9 0.00 0.00 0.00 86 1001.6
20260505101553 5 269 0.0 9.7 0.00 0.00 0.00 88 1000.4
20260505100052 5 307 1.6 12.9 0.00 0.00 0.00 88 1000.0
20260505094551 6 306 3.2 12.9 0.00 0.00 0.00 87 999.8
20260505093054 7 359 1.6 6.4 0.00 0.00 0.00 85 999.4